Terug naar catalogus

STARLINK-11683

ActiefCommunicatieVLEO
NORAD 64239·PAYLOAD·🇺🇸 United States

Gelanceerd Jun 3, 2025 vanaf Cape Canaveral Space Force Station

Loading…

Volgende Passages (komende 24 uur)

TLE

VersSource: CelesTrak SupGP

Epoch: Sep 15, 2026, 03:35 UTC

1 64239C 25119G   26258.14979167  .00129220  00000+0  10037-2 0  2585
2 64239  43.0003 146.7962 0001683 253.6190 169.9946 15.70773881    17

Volg STARLINK-11683 in realtime met AllMySat

Download on the App Store